DW8906 Weather Reports


Display with metric or nautical units.
time (UTC)temp
F
wind
direction
speed
MPH
gust
MPH
rain 1hr
in
rain 24hr
in
rain mn
in
humidity
%
barometer
mb
20200928145315 42 315 7.0 9.0 0.00 0.00 0.00 48 1027.8
20200928144208 41 338 8.0 9.0 0.00 0.00 0.00 50 1027.8
20200928143206 40 338 10.0 12.0 0.00 0.00 0.00 50 1027.8
20200928142107 40 338 7.0 10.0 0.00 0.00 0.00 53 1027.8
20200928141008 39 338 6.0 11.0 0.00 0.00 0.00 55 1027.8
20200928135908 37 293 8.0 9.0 0.00 0.00 0.00 59 1027.8
20200928134812 36 0 10.0 10.0 0.00 0.00 0.00 61 1027.4
20200928133819 35 293 8.0 8.0 0.00 0.00 0.00 65 1027.4
20200928132708 34 293 5.0 7.0 0.00 0.00 0.00 68 1027.8
20200928131706 33 270 5.0 8.0 0.00 0.00 0.00 71 1027.8
20200928130607 31 315 5.0 8.0 0.00 0.00 0.00 75 1027.4
20200928125510 31 315 6.0 9.0 0.00 0.00 0.00 75 1027.4
20200928124407 31 0 4.0 7.0 0.00 0.00 0.00 75 1027.4
20200928123308 31 315 5.0 8.0 0.00 0.00 0.00 73 1027.4
20200928122207 31 293 8.0 8.0 0.00 0.00 0.00 74 1027.4
20200928121107 31 338 6.0 8.0 0.00 0.00 0.00 75 1027.1
20200928120011 31 293 4.0 8.0 0.00 0.00 0.00 75 1027.1
20200928114907 32 0 6.0 8.0 0.00 0.00 0.00 75 1027.1
20200928113910 32 315 6.0 10.0 0.00 0.00 0.00 76 1027.1
20200928112814 32 315 8.0 11.0 0.00 0.00 0.00 76 1026.8
20200928111812 33 23 4.0 12.0 0.00 0.00 0.00 75 1026.8
20200928110707 33 315 9.0 15.0 0.00 0.00 0.00 74 1026.8
20200928105607 34 315 9.0 15.0 0.00 0.00 0.00 71 1026.8
20200928104516 34 338 15.0 15.0 0.00 0.00 0.00 70 1026.4
20200928103417 34 315 8.0 18.0 0.00 0.00 0.00 70 1026.4
20200928102309 35 0 9.0 16.0 0.00 0.00 0.00 69 1026.4
20200928101108 35 315 10.0 16.0 0.00 0.00 0.00 70 1026.4
20200928100017 34 338 11.0 13.0 0.00 0.00 0.00 75 1026.4
20200928095008 34 0 11.0 13.0 0.00 0.00 0.00 80 1026.1
20200928093909 34 338 10.0 11.0 0.00 0.00 0.00 83 1026.4
20200928092807 34 338 8.0 9.0 0.00 0.00 0.00 86 1026.1
20200928091707 34 0 5.0 10.0 0.00 0.00 0.00 85 1026.1
20200928090609 35 338 8.0 13.0 0.00 0.00 0.00 83 1026.1
20200928085507 35 0 8.0 10.0 0.00 0.00 0.00 83 1026.4
20200928084407 35 338 5.0 8.0 0.00 0.00 0.00 83 1026.4
20200928083308 35 0 11.0 11.0 0.00 0.00 0.00 83 1026.4
20200928082207 35 293 7.0 9.0 0.00 0.00 0.00 83 1026.4
20200928081207 35 315 7.0 9.0 0.00 0.00 0.00 81 1026.4
20200928080107 35 0 8.0 13.0 0.00 0.00 0.00 81 1026.4
20200928075010 35 0 7.0 12.0 0.00 0.00 0.00 81 1026.1
20200928073908 35 0 9.0 13.0 0.00 0.00 0.00 81 1026.1
20200928072812 35 338 8.0 13.0 0.00 0.00 0.00 83 1026.1
20200928071707 34 270 5.0 14.0 0.00 0.00 0.00 85 1026.1
20200928070607 34 0 8.0 10.0 0.00 0.00 0.00 85 1026.1
20200928065516 34 338 9.0 11.0 0.00 0.00 0.00 85 1026.1
20200928064408 35 338 7.0 13.0 0.00 0.00 0.00 83 1026.1
20200928063307 35 23 12.0 12.0 0.00 0.00 0.00 83 1026.1
20200928062209 35 0 10.0 15.0 0.00 0.00 0.00 83 1026.1
20200928061107 35 0 10.0 17.0 0.00 0.00 0.00 83 1026.1
20200928060025 34 338 17.0 18.0 0.00 0.00 0.00 86 1026.1
20200928055107 34 315 13.0 18.0 0.00 0.00 0.00 88 1026.1
20200928054018 35 315 15.0 19.0 0.00 0.00 0.00 88 1025.7
20200928052907 35 315 15.0 19.0 0.00 0.00 0.00 91 1025.7
20200928051808 35 0 15.0 18.0 0.00 0.00 0.00 91 1025.7
20200928050709 35 23 18.0 19.0 0.00 0.00 0.00 88 1025.7
20200928045608 35 338 11.0 18.0 0.00 0.00 0.00 90 1025.7
20200928044512 35 338 19.0 19.0 0.00 0.00 0.00 90 1025.7
20200928043410 35 45 11.0 20.0 0.00 0.00 0.00 88 1025.7
20200928042408 35 338 16.0 18.0 0.00 0.00 0.00 88 1025.7
20200928041307 36 23 17.0 20.0 0.00 0.00 0.00 88 1025.7
20200928040207 36 0 21.0 21.0 0.00 0.00 0.00 88 1025.4
20200928035108 36 0 16.0 17.0 0.00 0.00 0.00 88 1025.4
20200928034010 36 338 12.0 18.0 0.00 0.00 0.00 86 1025.4
20200928032911 36 23 12.0 19.0 0.00 0.00 0.00 88 1025.4
20200928031808 36 0 11.0 21.0 0.00 0.00 0.00 88 1025.4
20200928030823 36 315 22.0 22.0 0.00 0.00 0.00 88 1025.1
20200928025722 36 23 18.0 23.0 0.00 0.00 0.00 88 1024.7
20200928024708 36 315 17.0 19.0 0.00 0.00 0.00 88 1024.7
20200928023616 36 23 10.0 16.0 0.00 0.00 0.00 88 1025.1
20200928022518 36 338 12.0 18.0 0.00 0.00 0.00 88 1024.7
20200928021417 36 23 12.0 17.0 0.00 0.00 0.00 88 1024.7
20200928020413 36 23 13.0 22.0 0.00 0.00 0.00 88 1024.7
20200928015408 36 45 9.0 17.0 0.00 0.00 0.00 88 1024.7
20200928014318 36 0 10.0 16.0 0.00 0.00 0.00 86 1024.4
20200928013308 37 315 9.0 15.0 0.00 0.00 0.00 83 1024.4
20200928012217 37 0 11.0 16.0 0.00 0.00 0.00 83 1024.0
20200928011030 37 23 8.0 12.0 0.00 0.00 0.00 80 1024.0
20200928010022 37 23 12.0 16.0 0.00 0.00 0.00 75 1023.7
20200928004920 38 45 9.0 18.0 0.00 0.00 0.00 74 1023.7
20200928003910 39 23 9.0 15.0 0.00 0.00 0.00 71 1023.4
20200928002909 39 0 6.0 16.0 0.00 0.00 0.00 69 1023.0
20200928001807 40 23 10.0 12.0 0.00 0.00 0.00 65 1022.7
20200928000712 40 23 13.0 18.0 0.00 0.00 0.00 63 1022.7
20200927235711 40 338 14.0 16.0 0.00 0.00 0.00 63 1022.4
20200927234617 40 45 15.0 22.0 0.00 0.00 0.00 63 1022.4
20200927233517 41 338 9.0 16.0 0.00 0.00 0.00 63 1022.4
20200927232308 40 338 18.0 18.0 0.00 0.00 0.00 68 1022.0
20200927231212 40 338 8.0 17.0 0.00 0.00 0.00 74 1021.7
20200927230210 39 23 16.0 16.0 0.00 0.00 0.00 75 1021.7
20200927225114 39 45 15.0 16.0 0.00 0.00 0.00 78 1021.7
20200927224109 39 338 11.0 19.0 0.00 0.00 0.00 79 1021.3
20200927223107 38 0 12.0 20.0 0.00 0.00 0.00 79 1021.3
20200927222009 38 315 11.0 18.0 0.00 0.00 0.00 80 1021.3
20200927220917 38 23 11.0 22.0 0.00 0.00 0.00 79 1021.0
20200927215818 38 23 16.0 16.0 0.00 0.00 0.00 79 1021.3
20200927214709 39 23 11.0 19.0 0.00 0.00 0.00 79 1021.0
20200927213707 39 338 12.0 14.0 0.00 0.00 0.00 78 1020.7
20200927212608 39 23 11.0 16.0 0.00 0.00 0.00 78 1021.0
20200927211546 39 338 15.0 16.0 0.00 0.00 0.00 75 1021.0
20200927210518 40 315 10.0 16.0 0.00 0.00 0.00 75 1020.7
20200927205511 40 23 12.0 15.0 0.00 0.00 0.00 75 1021.0
20200927204407 40 338 12.0 15.0 0.00 0.00 0.00 75 1021.0
20200927203309 40 90 12.0 17.0 0.00 0.00 0.00 75 1021.0
20200927202208 40 23 12.0 15.0 0.00 0.00 0.00 73 1020.7
20200927201108 41 23 6.0 16.0 0.00 0.00 0.00 70 1021.0
20200927200018 42 0 9.0 13.0 0.00 0.00 0.00 69 1021.0
20200927194907 43 293 11.0 11.0 0.00 0.00 0.00 68 1020.7
20200927193821 42 0 12.0 14.0 0.00 0.00 0.00 68 1020.7
20200927192709 42 315 14.0 17.0 0.00 0.00 0.00 68 1021.0
20200927191618 42 23 12.0 14.0 0.00 0.00 0.00 66 1021.0
20200927190610 43 68 11.0 14.0 0.00 0.00 0.00 65 1021.3
20200927185512 42 45 10.0 15.0 0.00 0.00 0.00 65 1021.3
20200927184521 42 45 9.0 17.0 0.00 0.00 0.00 65 1021.7
20200927183410 42 23 12.0 23.0 0.00 0.00 0.00 65 1021.3
20200927182311 42 315 16.0 17.0 0.00 0.00 0.00 70 1021.3
20200927181208 43 68 11.0 16.0 0.00 0.00 0.00 71 1021.7
20200927180108 42 0 17.0 19.0 0.00 0.00 0.00 69 1021.7
20200927175010 43 23 11.0 18.0 0.00 0.00 0.00 66 1021.7
20200927173916 43 23 16.0 19.0 0.00 0.00 0.00 65 1021.3
20200927172907 45 338 13.0 19.0 0.00 0.00 0.00 63 1021.3
20200927171807 46 293 9.0 15.0 0.00 0.00 0.00 65 1021.7
20200927170707 48 338 16.0 19.0 0.00 0.00 0.00 63 1021.3
20200927165708 51 45 9.0 12.0 0.00 0.00 0.00 61 1021.3
20200927164609 51 45 11.0 13.0 0.00 0.00 0.00 60 1021.0
20200927163517 53 315 8.0 12.0 0.00 0.00 0.00 56 1020.7
20200927162408 54 338 8.0 13.0 0.00 0.00 0.00 55 1020.7
20200927161308 59 315 6.0 8.0 0.00 0.00 0.00 48 1020.7
20200927160209 66 90 3.0 4.0 0.00 0.00 0.00 40 1020.7
20200927155109 64 68 3.0 4.0 0.00 0.00 0.00 41 1020.3
20200927154015 62 90 3.0 4.0 0.00 0.00 0.00 44 1020.3
20200927152907 60 23 4.0 6.0 0.00 0.00 0.00 46 1020.0
20200927151808 59 45 6.0 6.0 0.00 0.00 0.00 48 1020.3
20200927150707 59 113 2.0 5.0 0.00 0.00 0.00 49 1020.0